NEWPRT Weather Reports


time (UTC)temp
C
wind
direction
speed
KPH
gust
KPH
rain 1hr
cm
rain 24hr
cm
rain mn
cm
humidity
%
barometer
mb
20260503180326 -17 264 0.0 4.8 0.00 0.00 0.00 22 1012.7
20260503175803 -17 224 0.0 4.8 0.00 0.00 0.00 23 1012.8
20260503175240 -17 211 1.6 3.2 0.00 0.00 0.00 23 1012.9
20260503174717 -17 266 0.0 3.2 0.00 0.00 0.00 26 1013.0
20260503174155 -17 126 0.0 6.4 0.00 0.00 0.00 25 1013.0
20260503173631 -17 240 0.0 6.4 0.00 0.00 0.00 25 1012.9
20260503173108 -17 210 0.0 6.4 0.00 0.00 0.00 24 1013.0
20260503172545 -17 221 0.0 4.8 0.00 0.00 0.00 27 1013.0
20260503172022 -17 190 0.0 4.8 0.00 0.00 0.00 26 1012.9
20260503171459 -17 205 0.0 4.8 0.00 0.00 0.00 26 1012.7
20260503170936 -17 264 0.0 4.8 0.00 0.00 0.00 25 1012.7
20260503170413 -17 0 0.0 4.8 0.00 0.00 0.00 27 1012.9
20260503150547 -17 219 0.0 6.4 0.00 0.00 0.00 30 1012.2
20260503140110 -17 0 0.0 4.8 0.00 0.00 0.00 40 1012.4
20260503131243 -17 173 0.0 1.6 0.00 0.00 0.00 43 1012.3
20260503130720 -17 247 0.0 1.6 0.00 0.00 0.00 42 1012.2
20260503130157 -17 229 0.0 1.6 0.00 0.00 0.00 42 1012.3
20260503110331 -17 0 0.0 0.0 0.00 0.00 0.00 46 1012.8
20260503090506 -17 0 0.0 0.0 0.00 0.00 0.00 47 1013.4
20260503081116 -17 0 0.0 6.4 0.00 0.00 0.00 51 1013.3
20260503080552 -17 0 0.0 6.4 0.00 0.00 0.00 51 1013.4
20260503072811 -17 235 1.6 8.0 0.00 0.00 0.00 52 1013.5
20260503072247 -17 219 4.8 6.4 0.00 0.00 0.00 54 1013.5
20260503071725 -17 0 1.6 3.2 0.00 0.00 0.00 55 1013.5
20260503071201 -17 0 0.0 0.0 0.00 0.00 0.00 63 1013.5
20260503070638 -17 0 0.0 0.0 0.00 0.00 0.00 65 1013.4
20260503070116 -17 0 0.0 0.0 0.00 0.00 0.00 66 1013.5
20260503060202 -17 238 0.0 4.8 0.00 0.00 0.00 77 1013.6
20260503055116 -17 280 0.0 3.2 0.00 0.00 0.00 78 1013.5
20260503054554 -17 270 0.0 6.4 0.00 0.00 0.00 78 1013.7
20260503054030 -17 18 0.0 6.4 0.00 0.00 0.00 79 1013.6
20260503053507 -17 100 0.0 6.4 0.00 0.00 0.00 78 1013.5
20260503052945 -17 0 0.0 8.0 0.00 0.00 0.00 80 1013.7
20260503052422 -17 93 0.0 8.0 0.00 0.00 0.00 81 1013.7
20260503051858 -17 100 3.2 8.0 0.00 0.00 0.00 80 1013.7
20260503051335 -17 0 0.0 1.6 0.00 0.00 0.00 81 1013.6
20260503050812 -17 0 0.0 1.6 0.00 0.00 0.00 81 1013.6
20260503050249 -17 138 0.0 1.6 0.00 0.00 0.00 81 1013.7
20260503045726 -17 0 0.0 4.8 0.00 0.00 0.00 81 1013.8
20260503045203 -17 85 0.0 4.8 0.00 0.00 0.00 77 1013.8
20260503044640 -17 0 0.0 16.1 0.00 0.00 0.00 77 1013.8
20260503044117 -17 98 0.0 16.1 0.00 0.00 0.00 78 1013.7
20260503043554 -17 92 4.8 16.1 0.00 0.00 0.00 77 1013.7
20260503043032 -17 88 6.4 16.1 0.00 0.00 0.00 75 1013.2
20260503042509 -17 109 4.8 14.5 0.00 0.00 0.00 76 1013.3
20260503041945 -17 105 9.7 14.5 0.00 0.00 0.00 76 1013.2
20260503041423 -17 95 8.0 14.5 0.00 0.00 0.00 75 1013.2
20260503040901 -17 105 8.0 14.5 0.00 0.00 0.00 76 1013.3
20260503040336 -17 89 6.4 14.5 0.00 0.00 0.00 76 1013.3
20260503035813 -17 103 8.0 14.5 0.00 0.00 0.00 75 1013.5
20260503035250 -17 103 8.0 11.3 0.00 0.00 0.00 72 1013.6
20260503034727 -17 96 6.4 8.0 0.00 0.00 0.00 69 1013.6
20260503034204 -17 109 3.2 9.7 0.00 0.00 0.00 67 1013.4
20260503033641 -17 131 0.0 9.7 0.00 0.00 0.00 69 1013.7
20260503033118 -17 100 0.0 9.7 0.00 0.00 0.00 67 1013.6
20260503032555 -17 103 3.2 11.3 0.00 0.00 0.00 64 1013.4
20260503032032 -17 114 0.0 11.3 0.00 0.00 0.00 66 1013.5
20260503031510 -17 96 0.0 11.3 0.00 0.00 0.00 62 1013.3
20260503030946 -17 78 4.8 8.0 0.00 0.00 0.00 64 1013.7
20260503030423 -17 0 0.0 0.0 0.00 0.00 0.00 65 1013.8
20260503025900 -17 0 0.0 0.0 0.00 0.00 0.00 65 1013.8
20260503025337 -17 0 0.0 0.0 0.00 0.00 0.00 66 1013.7
20260503024814 -17 0 0.0 1.6 0.00 0.00 0.00 66 1013.9
20260503024251 -17 0 0.0 1.6 0.00 0.00 0.00 66 1013.9
20260503023728 -17 98 0.0 1.6 0.00 0.00 0.00 66 1013.7
20260503023205 -17 98 0.0 6.4 0.00 0.00 0.00 66 1013.8
20260503022642 -17 114 1.6 6.4 0.00 0.00 0.00 65 1013.7
20260503022121 -17 86 3.2 8.0 0.00 0.00 0.00 64 1013.8
20260503021556 -17 78 4.8 8.0 0.00 0.00 0.00 64 1013.7
20260503021033 -17 109 3.2 8.0 0.00 0.00 0.00 63 1013.6
20260503020511 -17 107 4.8 8.0 0.00 0.00 0.00 61 1013.5
20260503015947 -17 102 4.8 6.4 0.00 0.00 0.00 61 1013.5
20260503015424 -17 0 0.0 11.3 0.00 0.00 0.00 62 1013.8
20260503014901 -17 95 0.0 11.3 0.00 0.00 0.00 61 1013.6
20260503014338 -17 102 3.2 11.3 0.00 0.00 0.00 59 1013.5
20260503013815 -17 89 1.6 9.7 0.00 0.00 0.00 60 1013.7
20260503013252 -17 126 0.0 14.5 0.00 0.00 0.00 60 1013.8
20260503012729 -17 85 3.2 14.5 0.00 0.00 0.00 62 1013.8
20260503012206 -17 102 8.0 11.3 0.00 0.00 0.00 60 1013.7
20260503011643 -17 72 0.0 11.3 0.00 0.00 0.00 62 1013.9
20260503011120 -17 67 4.8 11.3 0.00 0.00 0.00 63 1013.9
20260503010557 -17 98 4.8 9.7 0.00 0.00 0.00 65 1013.8
20260503010034 -17 105 4.8 9.7 0.00 0.00 0.00 65 1013.6
20260503005511 -17 93 4.8 11.3 0.00 0.00 0.00 67 1013.8
20260503004948 -17 102 1.6 11.3 0.00 0.00 0.00 67 1013.7
20260503004425 -17 82 4.8 11.3 0.00 0.00 0.00 69 1013.7
20260503003902 -17 123 4.8 11.3 0.00 0.00 0.00 68 1013.8
20260503003339 -17 92 4.8 14.5 0.00 0.00 0.00 69 1013.7
20260503002816 -17 91 4.8 14.5 0.00 0.00 0.00 68 1013.6
20260503002253 -17 99 4.8 12.9 0.00 0.00 0.00 66 1013.8
20260503001730 -17 102 3.2 12.9 0.00 0.00 0.00 67 1013.7
20260503001207 -17 100 6.4 12.9 0.00 0.00 0.00 66 1013.8
20260503000644 -17 114 4.8 12.9 0.00 0.00 0.00 66 1013.9
20260503000121 -17 95 6.4 12.9 0.00 0.00 0.00 68 1013.9
20260502235558 -17 117 3.2 12.9 0.00 0.00 0.00 66 1013.8
20260502235034 -17 107 4.8 14.5 0.00 0.00 0.00 67 1013.8
20260502234512 -17 88 1.6 14.5 0.00 0.00 0.00 67 1013.8
20260502233948 -17 95 8.0 14.5 0.00 0.00 0.00 68 1013.8
20260502233425 -17 91 6.4 14.5 0.00 0.00 0.00 65 1013.7
20260502232902 -17 92 8.0 14.5 0.00 0.00 0.00 69 1014.0
20260502232339 -17 86 9.7 14.5 0.00 0.00 0.00 71 1014.0
20260502231816 -17 67 8.0 14.5 0.00 0.00 0.00 70 1014.1
20260502231253 -17 88 4.8 17.7 0.00 0.00 0.00 73 1014.4
20260502230730 -17 102 8.0 17.7 0.00 0.00 0.00 73 1014.4
20260502230207 -17 96 8.0 16.1 0.00 0.00 0.00 71 1014.6
20260502225645 -17 91 8.0 16.1 0.00 0.00 0.00 70 1014.6
20260502225122 -17 89 9.7 19.3 0.00 0.00 0.00 69 1014.8
20260502224559 -17 86 9.7 19.3 0.00 0.00 0.00 71 1014.9
20260502224035 -17 107 4.8 19.3 0.00 0.00 0.00 72 1014.9
20260502223512 -17 100 9.7 19.3 0.00 0.00 0.00 68 1015.0
20260502222949 -17 93 8.0 19.3 0.00 0.00 0.00 70 1015.2
20260502222426 -17 102 8.0 16.1 0.00 0.00 0.00 67 1015.2
20260502221903 -17 93 9.7 16.1 0.00 0.00 0.00 66 1015.3
20260502221340 -17 78 6.4 16.1 0.00 0.00 0.00 65 1015.3
20260502220817 -17 91 8.0 17.7 0.00 0.00 0.00 64 1015.4
20260502220255 -17 70 6.4 17.7 0.00 0.00 0.00 64 1015.5
20260502215731 -17 92 6.4 17.7 0.00 0.00 0.00 63 1015.4
20260502215208 -17 105 9.7 17.7 0.00 0.00 0.00 64 1015.4
20260502214646 -17 92 6.4 17.7 0.00 0.00 0.00 64 1015.4
20260502214122 -17 98 8.0 14.5 0.00 0.00 0.00 63 1015.5
20260502213600 -17 113 8.0 16.1 0.00 0.00 0.00 63 1015.3
20260502213036 -17 107 8.0 16.1 0.00 0.00 0.00 64 1015.5
20260502212514 -17 124 6.4 16.1 0.00 0.00 0.00 66 1015.6
20260502211950 -17 102 6.4 16.1 0.00 0.00 0.00 69 1015.7
20260502211427 -17 113 11.3 16.1 0.00 0.00 0.00 69 1015.8
20260502210904 -17 93 6.4 16.1 0.00 0.00 0.00 72 1015.8
20260502210341 -17 96 6.4 17.7 0.00 0.00 0.00 71 1015.5
20260502205818 -17 79 4.8 17.7 0.00 0.00 0.00 72 1015.7
20260502205255 -17 106 4.8 14.5 0.00 0.00 0.00 71 1015.8
20260502204732 -17 82 4.8 14.5 0.00 0.00 0.00 71 1015.8
20260502204209 -17 92 4.8 14.5 0.00 0.00 0.00 70 1015.8
20260502203646 -17 103 8.0 11.3 0.00 0.00 0.00 69 1015.9
20260502203123 -17 81 6.4 9.7 0.00 0.00 0.00 64 1016.0
20260502202600 -17 106 3.2 14.5 0.00 0.00 0.00 65 1015.9
20260502202037 -17 77 1.6 14.5 0.00 0.00 0.00 66 1016.0
20260502201514 -17 107 4.8 14.5 0.00 0.00 0.00 69 1016.1
20260502200951 -17 99 3.2 14.5 0.00 0.00 0.00 70 1016.2
20260502200428 -17 84 1.6 14.5 0.00 0.00 0.00 70 1016.1
20260502195905 -17 100 3.2 12.9 0.00 0.00 0.00 69 1016.0
20260502195342 -17 117 6.4 12.9 0.00 0.00 0.00 69 1016.1
20260502194819 -17 85 6.4 12.9 0.00 0.00 0.00 67 1016.2
20260502194256 -17 98 4.8 12.9 0.00 0.00 0.00 65 1016.1
20260502193733 -17 112 3.2 12.9 0.00 0.00 0.00 64 1016.2
20260502193210 -17 105 6.4 12.9 0.00 0.00 0.00 64 1016.2
20260502192649 -17 99 6.4 11.3 0.00 0.00 0.00 62 1016.5
20260502192124 -17 100 0.0 14.5 0.00 0.00 0.00 63 1016.4
20260502191601 -17 96 3.2 14.5 0.00 0.00 0.00 62 1016.5
20260502191038 -17 86 0.0 14.5 0.00 0.00 0.00 60 1016.3
20260502190516 -17 103 8.0 16.1 0.00 0.00 0.00 60 1016.3
20260502185952 -17 91 4.8 16.1 0.00 0.00 0.00 59 1016.5
20260502185429 -17 82 1.6 16.1 0.00 0.00 0.00 57 1016.6
20260502184906 -17 98 6.4 16.1 0.00 0.00 0.00 58 1016.4
20260502184343 -17 86 4.8 12.9 0.00 0.00 0.00 58 1016.7
20260502183820 -17 96 0.0 12.9 0.00 0.00 0.00 60 1016.7
20260502183257 -17 91 4.8 12.9 0.00 0.00 0.00 60 1016.7
20260502182734 -17 72 3.2 11.3 0.00 0.00 0.00 62 1016.7
20260502182211 -17 113 0.0 12.9 0.00 0.00 0.00 63 1016.6
20260502181648 -17 105 1.6 12.9 0.00 0.00 0.00 63 1016.7
20260502181125 -17 92 1.6 9.7 0.00 0.00 0.00 62 1016.8